RUK5TH EGBB-GMMX

Flight info

Callsign RUK5TH
Flight time 3h 18m
Altitude 37000
Route CPT Y321 PEPIS Q41 SAM M195 LORKU DCT BALDA DCT ABUPI DCT BIRBA DCT ALAGU DCT AMSEL UR722 SAK UW900 SLK UZ801 VALBA UG850 OBOGA
Aircraft B738/M-SDE2E3FGHIRWXY/LB1

Departure

Time 2026-04-29 13:09
Airport Birmingham Airport (EGBB)

Arrival

Time 2026-04-29 16:28
Airport Marrakesh Menara Airport (GMMX)
Time Latitude Longitude Altitude Speed Heading
2026-04-29 12:37 52.45435 -1.73483 321 ft 0 kts 146°
2026-04-29 12:57 52.45443 -1.73492 321 ft 3 kts 146°
2026-04-29 12:58 52.45459 -1.73510 319 ft 3 kts 152°
2026-04-29 12:58 52.45477 -1.73522 319 ft 3 kts 174°
2026-04-29 12:58 52.45496 -1.73520 322 ft 3 kts 206°
2026-04-29 12:58 52.45509 -1.73505 320 ft 1 kts 235°
2026-04-29 13:01 52.45506 -1.73511 322 ft 0 kts 235°
2026-04-29 13:01 52.45491 -1.73547 321 ft 10 kts 234°
2026-04-29 13:01 52.45436 -1.73677 322 ft 15 kts 236°
2026-04-29 13:02 52.45380 -1.73814 322 ft 14 kts 236°
2026-04-29 13:02 52.45324 -1.73950 322 ft 14 kts 237°
2026-04-29 13:02 52.45330 -1.74101 322 ft 16 kts 294°
2026-04-29 13:02 52.45394 -1.74312 322 ft 24 kts 296°
2026-04-29 13:03 52.45465 -1.74539 322 ft 17 kts 301°
2026-04-29 13:03 52.45566 -1.74675 320 ft 23 kts 326°
2026-04-29 13:03 52.45727 -1.74853 310 ft 32 kts 326°
2026-04-29 13:03 52.45917 -1.75065 305 ft 33 kts 326°
2026-04-29 13:04 52.46091 -1.75260 303 ft 27 kts 326°
2026-04-29 13:04 52.46206 -1.75386 301 ft 11 kts 323°
2026-04-29 13:04 52.46215 -1.75468 305 ft 5 kts 234°
2026-04-29 13:04 52.46213 -1.75473 306 ft 0 kts 234°
2026-04-29 13:06 52.46192 -1.75520 307 ft 10 kts 234°
2026-04-29 13:06 52.46151 -1.75620 308 ft 5 kts 234°
2026-04-29 13:06 52.46118 -1.75615 309 ft 5 kts 147°
2026-04-29 13:06 52.46114 -1.75611 310 ft 0 kts 147°
2026-04-29 13:08 52.46109 -1.75605 308 ft 5 kts 147°
2026-04-29 13:08 52.45932 -1.75408 316 ft 65 kts 146°
2026-04-29 13:09 52.45382 -1.74797 324 ft 127 kts 145°
2026-04-29 13:09 52.44524 -1.73865 589 ft 157 kts 138°
2026-04-29 13:09 52.43648 -1.72887 1515 ft 150 kts 135°
2026-04-29 13:09 52.42779 -1.71903 2285 ft 153 kts 136°
2026-04-29 13:10 52.41855 -1.70851 2749 ft 177 kts 137°
2026-04-29 13:10 52.40651 -1.69890 3079 ft 207 kts 158°
2026-04-29 13:10 52.39210 -1.69318 3529 ft 216 kts 156°
2026-04-29 13:10 52.37777 -1.68581 4179 ft 217 kts 153°
2026-04-29 13:11 52.36355 -1.67809 5106 ft 212 kts 154°
2026-04-29 13:11 52.34960 -1.67049 5908 ft 214 kts 154°
2026-04-29 13:11 52.33491 -1.66240 6328 ft 236 kts 155°
2026-04-29 13:11 52.31861 -1.65346 6796 ft 252 kts 156°
2026-04-29 13:12 52.30173 -1.64435 7489 ft 257 kts 157°
2026-04-29 13:12 52.28471 -1.63523 8276 ft 258 kts 157°
2026-04-29 13:12 52.26758 -1.62608 9124 ft 260 kts 157°
2026-04-29 13:12 52.25046 -1.61694 9848 ft 264 kts 157°
2026-04-29 13:13 52.23289 -1.60757 10555 ft 269 kts 158°
2026-04-29 13:13 52.21449 -1.59773 10814 ft 289 kts 158°
2026-04-29 13:13 52.19456 -1.58704 10985 ft 312 kts 158°
2026-04-29 13:13 52.17357 -1.57587 11461 ft 322 kts 158°
2026-04-29 13:14 52.15237 -1.56467 12271 ft 320 kts 158°
2026-04-29 13:14 52.13100 -1.55338 12967 ft 325 kts 159°
2026-04-29 13:14 52.10926 -1.54190 13654 ft 329 kts 158°
2026-04-29 13:14 52.08745 -1.53039 14406 ft 332 kts 159°
2026-04-29 13:15 52.06527 -1.51868 15055 ft 336 kts 158°
2026-04-29 13:15 52.04292 -1.50689 15743 ft 339 kts 158°
2026-04-29 13:15 52.02068 -1.49517 16385 ft 341 kts 158°
2026-04-29 13:15 51.99796 -1.48321 17113 ft 344 kts 158°
2026-04-29 13:16 51.97514 -1.47121 17805 ft 347 kts 158°
2026-04-29 13:16 51.95202 -1.45905 18466 ft 351 kts 157°
2026-04-29 13:16 51.92858 -1.44673 19001 ft 356 kts 157°
2026-04-29 13:16 51.90475 -1.43491 19627 ft 360 kts 162°
2026-04-29 13:17 51.87962 -1.42957 20258 ft 367 kts 171°
2026-04-29 13:17 51.85433 -1.42736 20870 ft 369 kts 172°
2026-04-29 13:17 51.82854 -1.42527 21463 ft 372 kts 172°
2026-04-29 13:17 51.80265 -1.42315 22052 ft 374 kts 172°
2026-04-29 13:18 51.77654 -1.42091 22605 ft 378 kts 173°
2026-04-29 13:18 51.75004 -1.41856 23082 ft 382 kts 173°
2026-04-29 13:18 51.72347 -1.41614 23629 ft 384 kts 173°
2026-04-29 13:18 51.69659 -1.41366 24120 ft 387 kts 173°
2026-04-29 13:19 51.66965 -1.41116 24573 ft 389 kts 173°
2026-04-29 13:19 51.64257 -1.40863 25021 ft 391 kts 174°
2026-04-29 13:19 51.61528 -1.40607 25464 ft 393 kts 174°
2026-04-29 13:19 51.58797 -1.40352 25910 ft 395 kts 174°
2026-04-29 13:20 51.56079 -1.40097 26347 ft 396 kts 175°
2026-04-29 13:20 51.53311 -1.39840 26780 ft 398 kts 176°
2026-04-29 13:20 51.50525 -1.40001 27162 ft 403 kts 187°
2026-04-29 13:20 51.47782 -1.40973 27613 ft 405 kts 195°
2026-04-29 13:21 51.45139 -1.42583 28053 ft 407 kts 200°
2026-04-29 13:21 51.42510 -1.44310 28460 ft 409 kts 200°
2026-04-29 13:21 51.39874 -1.46046 28862 ft 410 kts 200°
2026-04-29 13:21 51.37227 -1.47780 29278 ft 411 kts 200°
2026-04-29 13:22 51.34571 -1.49509 29650 ft 413 kts 200°
2026-04-29 13:22 51.31904 -1.51233 30015 ft 414 kts 201°
2026-04-29 13:22 51.29231 -1.52954 30494 ft 412 kts 201°
2026-04-29 13:22 51.26580 -1.54655 30918 ft 410 kts 201°
2026-04-29 13:23 51.23965 -1.56329 31245 ft 410 kts 201°
2026-04-29 13:23 51.21308 -1.58026 31546 ft 411 kts 201°
2026-04-29 13:23 51.18656 -1.59718 31901 ft 411 kts 201°
2026-04-29 13:23 51.15995 -1.61414 32277 ft 410 kts 201°
2026-04-29 13:24 51.13351 -1.63097 32614 ft 410 kts 200°
2026-04-29 13:24 51.10701 -1.64781 32930 ft 410 kts 200°
2026-04-29 13:24 51.08047 -1.66466 33272 ft 410 kts 200°
2026-04-29 13:24 51.05397 -1.68147 33619 ft 409 kts 200°
2026-04-29 13:25 51.02748 -1.69825 33942 ft 409 kts 200°
2026-04-29 13:25 50.97484 -1.73153 34497 ft 409 kts 200°
2026-04-29 13:25 50.94839 -1.74822 34695 ft 410 kts 200°
2026-04-29 13:26 50.92181 -1.76497 34937 ft 410 kts 200°
2026-04-29 13:26 50.89520 -1.78171 35176 ft 411 kts 200°
2026-04-29 13:26 50.86865 -1.79841 35418 ft 411 kts 200°
2026-04-29 13:26 50.84206 -1.81511 35666 ft 411 kts 200°
2026-04-29 13:27 50.81547 -1.83178 35915 ft 410 kts 200°
2026-04-29 13:27 50.78894 -1.84841 36169 ft 410 kts 200°
2026-04-29 13:27 50.76274 -1.86480 36397 ft 410 kts 200°
2026-04-29 13:27 50.73626 -1.88135 36673 ft 409 kts 199°
2026-04-29 13:28 50.70984 -1.89785 36931 ft 408 kts 199°
2026-04-29 13:28 50.68331 -1.91438 37167 ft 408 kts 199°
2026-04-29 13:28 50.62974 -1.94769 37173 ft 417 kts 199°
2026-04-29 13:29 50.57568 -1.98123 37156 ft 421 kts 199°
2026-04-29 13:29 50.52109 -2.01505 37155 ft 422 kts 199°
2026-04-29 13:30 50.47531 -2.04334 37145 ft 422 kts 199°
2026-04-29 13:30 50.42101 -2.07681 37146 ft 422 kts 199°
2026-04-29 13:31 50.36642 -2.11039 37143 ft 420 kts 199°
2026-04-29 13:31 50.31211 -2.14405 37139 ft 419 kts 200°
2026-04-29 13:32 50.25856 -2.17996 37134 ft 417 kts 201°
2026-04-29 13:32 50.20549 -2.21613 37111 ft 415 kts 201°
2026-04-29 13:33 50.15299 -2.25159 37131 ft 412 kts 201°
2026-04-29 13:33 50.10030 -2.28688 37139 ft 411 kts 201°
2026-04-29 13:34 50.04768 -2.32196 37113 ft 410 kts 200°
2026-04-29 13:34 49.99518 -2.35684 37109 ft 410 kts 200°
2026-04-29 13:35 49.94278 -2.39158 37099 ft 410 kts 201°
2026-04-29 13:35 49.89019 -2.42636 37092 ft 410 kts 201°
2026-04-29 13:36 49.83767 -2.46102 37074 ft 411 kts 201°
2026-04-29 13:36 49.78529 -2.49551 37083 ft 411 kts 201°
2026-04-29 13:37 49.73257 -2.53013 37082 ft 412 kts 201°
2026-04-29 13:37 49.67970 -2.56477 37071 ft 413 kts 201°
2026-04-29 13:38 49.62669 -2.59943 37057 ft 414 kts 201°
2026-04-29 13:38 49.57363 -2.63404 37051 ft 414 kts 201°
2026-04-29 13:39 49.52041 -2.66866 37045 ft 415 kts 201°
2026-04-29 13:39 49.46705 -2.70330 37062 ft 416 kts 201°
2026-04-29 13:40 49.41374 -2.73782 37052 ft 416 kts 201°
2026-04-29 13:40 49.36075 -2.77206 37044 ft 415 kts 201°
2026-04-29 13:41 49.30759 -2.80633 37039 ft 413 kts 201°
2026-04-29 13:41 49.25460 -2.84040 37019 ft 412 kts 201°
2026-04-29 13:42 49.20169 -2.87434 37021 ft 411 kts 201°
2026-04-29 13:42 49.14939 -2.90782 37021 ft 410 kts 201°
2026-04-29 13:43 49.09679 -2.94140 37016 ft 409 kts 201°
2026-04-29 13:43 49.04423 -2.97488 37008 ft 409 kts 201°
2026-04-29 13:44 48.99158 -3.00835 37008 ft 410 kts 201°
2026-04-29 13:44 48.93882 -3.04180 37012 ft 411 kts 201°
2026-04-29 13:45 48.88594 -3.07526 37034 ft 412 kts 201°
2026-04-29 13:45 48.83280 -3.10880 37009 ft 414 kts 201°
2026-04-29 13:46 48.77971 -3.14224 36999 ft 415 kts 201°
2026-04-29 13:46 48.72621 -3.17585 36993 ft 416 kts 200°
2026-04-29 13:47 48.67277 -3.20936 36995 ft 416 kts 200°
2026-04-29 13:47 48.61932 -3.24279 36991 ft 416 kts 200°
2026-04-29 13:48 48.56581 -3.27618 36983 ft 415 kts 201°
2026-04-29 13:48 48.51253 -3.30935 36967 ft 414 kts 201°
2026-04-29 13:49 48.45927 -3.34244 36968 ft 413 kts 201°
2026-04-29 13:49 48.40619 -3.37534 36962 ft 413 kts 201°
2026-04-29 13:50 48.35310 -3.40816 36961 ft 412 kts 201°
2026-04-29 13:50 48.30032 -3.44072 36974 ft 412 kts 200°
2026-04-29 13:51 48.24719 -3.47343 36955 ft 412 kts 200°
2026-04-29 13:51 48.19411 -3.50603 36940 ft 412 kts 200°
2026-04-29 13:52 48.14116 -3.53848 36940 ft 411 kts 201°
2026-04-29 13:52 48.08837 -3.57076 36939 ft 411 kts 201°
2026-04-29 13:53 48.03544 -3.60305 36930 ft 411 kts 201°
2026-04-29 13:53 47.98248 -3.63529 36936 ft 411 kts 201°
2026-04-29 13:54 47.92950 -3.66746 36928 ft 411 kts 201°
2026-04-29 13:54 47.87658 -3.69954 36932 ft 411 kts 201°
2026-04-29 13:55 47.82356 -3.73160 36929 ft 411 kts 201°
2026-04-29 13:55 47.77048 -3.76363 36929 ft 411 kts 201°
2026-04-29 13:56 47.71770 -3.79541 36940 ft 412 kts 200°
2026-04-29 13:56 47.66456 -3.82732 36934 ft 412 kts 200°
2026-04-29 13:57 47.61134 -3.85922 36927 ft 412 kts 200°
2026-04-29 13:57 47.55805 -3.89109 36926 ft 413 kts 200°
2026-04-29 13:58 47.50478 -3.92288 36921 ft 413 kts 201°
2026-04-29 13:58 47.45143 -3.95465 36924 ft 413 kts 201°
2026-04-29 13:59 47.39811 -3.98633 36920 ft 413 kts 201°
2026-04-29 13:59 47.34466 -4.01802 36921 ft 413 kts 201°
2026-04-29 14:00 47.29133 -4.04956 36914 ft 413 kts 201°
2026-04-29 14:00 47.23820 -4.08093 36918 ft 413 kts 201°
2026-04-29 14:01 47.18478 -4.11239 36914 ft 413 kts 201°
2026-04-29 14:01 47.13140 -4.14377 36916 ft 414 kts 201°
2026-04-29 14:02 47.07788 -4.17515 36906 ft 414 kts 201°
2026-04-29 14:02 47.02460 -4.20632 36905 ft 414 kts 201°
2026-04-29 14:03 46.97080 -4.23774 36904 ft 414 kts 201°
2026-04-29 14:03 46.91764 -4.26871 36904 ft 414 kts 201°
2026-04-29 14:04 46.86416 -4.29980 36899 ft 413 kts 201°
2026-04-29 14:04 46.81071 -4.33081 36902 ft 413 kts 201°
2026-04-29 14:05 46.75727 -4.36175 36902 ft 413 kts 201°
2026-04-29 14:05 46.70381 -4.39263 36896 ft 413 kts 201°
2026-04-29 14:06 46.65030 -4.42348 36896 ft 413 kts 201°
2026-04-29 14:06 46.59680 -4.45425 36892 ft 413 kts 201°
2026-04-29 14:07 46.54332 -4.48495 36887 ft 413 kts 201°
2026-04-29 14:07 46.49019 -4.51538 36886 ft 413 kts 201°
2026-04-29 14:08 46.43640 -4.54612 36880 ft 413 kts 201°
2026-04-29 14:08 46.38328 -4.57642 36879 ft 413 kts 201°
2026-04-29 14:09 46.32970 -4.60691 36879 ft 413 kts 201°
2026-04-29 14:09 46.27622 -4.63729 36879 ft 413 kts 201°
2026-04-29 14:10 46.22280 -4.66756 36873 ft 412 kts 201°
2026-04-29 14:10 46.16931 -4.69782 36873 ft 413 kts 201°
2026-04-29 14:11 46.11605 -4.72788 36858 ft 413 kts 201°
2026-04-29 14:11 46.06259 -4.75799 36860 ft 412 kts 201°
2026-04-29 14:12 46.00913 -4.78803 36869 ft 412 kts 201°
2026-04-29 14:12 45.95570 -4.81800 36863 ft 412 kts 201°
2026-04-29 14:13 45.90223 -4.84793 36860 ft 412 kts 201°
2026-04-29 14:13 45.84885 -4.87774 36852 ft 411 kts 201°
2026-04-29 14:14 45.79547 -4.90750 36854 ft 411 kts 201°
2026-04-29 14:14 45.74256 -4.93693 36854 ft 411 kts 201°
2026-04-29 14:15 45.68920 -4.96655 36855 ft 411 kts 201°
2026-04-29 14:15 45.63588 -4.99609 36849 ft 410 kts 201°
2026-04-29 14:16 45.58262 -5.02554 36846 ft 411 kts 201°
2026-04-29 14:16 45.53830 -5.04999 36848 ft 411 kts 201°
2026-04-29 14:17 45.48497 -5.07936 36851 ft 411 kts 201°
2026-04-29 14:17 45.42285 -5.11350 36840 ft 411 kts 201°
2026-04-29 14:18 45.37804 -5.13808 36840 ft 412 kts 201°
2026-04-29 14:18 45.32488 -5.16719 36839 ft 412 kts 201°
2026-04-29 14:19 45.27128 -5.19647 36839 ft 412 kts 201°
2026-04-29 14:19 45.21778 -5.22564 36836 ft 412 kts 201°
2026-04-29 14:20 45.16419 -5.25480 36835 ft 412 kts 201°
2026-04-29 14:20 45.11060 -5.28390 36836 ft 412 kts 201°
2026-04-29 14:21 45.05700 -5.31295 36828 ft 412 kts 201°
2026-04-29 14:21 45.00345 -5.34192 36833 ft 412 kts 201°
2026-04-29 14:22 44.95029 -5.37061 36837 ft 412 kts 201°
2026-04-29 14:22 44.89665 -5.39951 36832 ft 412 kts 201°
2026-04-29 14:23 44.84303 -5.42834 36831 ft 412 kts 201°
2026-04-29 14:23 44.78949 -5.45707 36832 ft 412 kts 201°
2026-04-29 14:24 44.73627 -5.48558 36833 ft 411 kts 201°
2026-04-29 14:24 44.68242 -5.51437 36830 ft 411 kts 201°
2026-04-29 14:25 44.62921 -5.54275 36829 ft 411 kts 201°
2026-04-29 14:25 44.57618 -5.57278 36826 ft 411 kts 204°
2026-04-29 14:26 44.52398 -5.60533 36827 ft 411 kts 204°
2026-04-29 14:26 44.47179 -5.63807 36817 ft 411 kts 204°
2026-04-29 14:27 44.41954 -5.67050 36829 ft 410 kts 204°
2026-04-29 14:28 44.34113 -5.71876 36840 ft 410 kts 204°
2026-04-29 14:28 44.28910 -5.75065 36827 ft 411 kts 204°
2026-04-29 14:29 44.23668 -5.78272 36827 ft 411 kts 204°
2026-04-29 14:29 44.18425 -5.81474 36823 ft 411 kts 204°
2026-04-29 14:30 44.13177 -5.84672 36821 ft 411 kts 204°
2026-04-29 14:30 44.07957 -5.87848 36832 ft 412 kts 204°
2026-04-29 14:31 44.02698 -5.91041 36815 ft 412 kts 204°
2026-04-29 14:31 43.97440 -5.94226 36819 ft 412 kts 204°
2026-04-29 14:32 43.92187 -5.97403 36819 ft 412 kts 203°
2026-04-29 14:32 43.86932 -6.00575 36812 ft 411 kts 203°
2026-04-29 14:33 43.81687 -6.03735 36820 ft 410 kts 203°
2026-04-29 14:33 43.76476 -6.06869 36825 ft 410 kts 203°
2026-04-29 14:34 43.71237 -6.10012 36820 ft 410 kts 203°
2026-04-29 14:34 43.65986 -6.13157 36806 ft 410 kts 203°
2026-04-29 14:35 43.60738 -6.16295 36814 ft 411 kts 203°
2026-04-29 14:35 43.55491 -6.19426 36829 ft 411 kts 203°
2026-04-29 14:36 43.50262 -6.22540 36820 ft 412 kts 203°
2026-04-29 14:36 43.44987 -6.25676 36809 ft 413 kts 203°
2026-04-29 14:37 43.39711 -6.28806 36806 ft 414 kts 203°
2026-04-29 14:37 43.34409 -6.31946 36814 ft 414 kts 203°
2026-04-29 14:38 43.29105 -6.35081 36797 ft 415 kts 203°
2026-04-29 14:38 43.23810 -6.38204 36791 ft 416 kts 203°
2026-04-29 14:39 43.18492 -6.41335 36796 ft 416 kts 203°
2026-04-29 14:39 43.13169 -6.44463 36788 ft 417 kts 203°
2026-04-29 14:40 43.07840 -6.47590 36798 ft 417 kts 203°
2026-04-29 14:40 43.02512 -6.50709 36778 ft 416 kts 203°
2026-04-29 14:41 42.97188 -6.53819 36795 ft 417 kts 203°
2026-04-29 14:41 42.91849 -6.56934 36792 ft 417 kts 203°
2026-04-29 14:42 42.86537 -6.60026 36787 ft 418 kts 203°
2026-04-29 14:42 42.81174 -6.63142 36783 ft 419 kts 203°
2026-04-29 14:43 42.75799 -6.66259 36791 ft 420 kts 203°
2026-04-29 14:43 42.70423 -6.69371 36791 ft 420 kts 203°
2026-04-29 14:44 42.65038 -6.72482 36789 ft 420 kts 203°
2026-04-29 14:44 42.59691 -6.75565 36785 ft 420 kts 203°
2026-04-29 14:45 42.54320 -6.78657 36784 ft 419 kts 203°
2026-04-29 14:45 42.48954 -6.81740 36786 ft 419 kts 203°
2026-04-29 14:46 42.43590 -6.84816 36802 ft 418 kts 203°
2026-04-29 14:46 42.38231 -6.87883 36783 ft 418 kts 203°
2026-04-29 14:47 42.32869 -6.90947 36796 ft 418 kts 203°
2026-04-29 14:47 42.27502 -6.94007 36800 ft 419 kts 203°
2026-04-29 14:48 42.22162 -6.97047 36795 ft 420 kts 203°
2026-04-29 14:48 42.16763 -7.00115 36803 ft 421 kts 203°
2026-04-29 14:49 42.11366 -7.03175 36798 ft 422 kts 203°
2026-04-29 14:49 42.05943 -7.06245 36820 ft 425 kts 203°
2026-04-29 14:49 42.03203 -7.07794 36942 ft 428 kts 203°
2026-04-29 14:50 42.00456 -7.09345 37208 ft 427 kts 203°
2026-04-29 14:50 41.97723 -7.10887 37477 ft 426 kts 203°
2026-04-29 14:50 41.94991 -7.12427 37758 ft 425 kts 203°
2026-04-29 14:50 41.92290 -7.13948 38004 ft 424 kts 203°
2026-04-29 14:51 41.89572 -7.15478 38278 ft 422 kts 203°
2026-04-29 14:51 41.86865 -7.17000 38536 ft 421 kts 204°
2026-04-29 14:51 41.84168 -7.18515 38746 ft 419 kts 204°
2026-04-29 14:52 41.78752 -7.21553 38796 ft 425 kts 203°
2026-04-29 14:52 41.73094 -7.23929 38794 ft 430 kts 189°
2026-04-29 14:53 41.67150 -7.24673 38797 ft 433 kts 186°
2026-04-29 14:53 41.61117 -7.25338 38798 ft 435 kts 186°
2026-04-29 14:54 41.55069 -7.26034 38812 ft 436 kts 187°
2026-04-29 14:54 41.49004 -7.26756 38806 ft 436 kts 187°
2026-04-29 14:55 41.43013 -7.27477 38801 ft 434 kts 187°
2026-04-29 14:55 41.36996 -7.28201 38802 ft 433 kts 187°
2026-04-29 14:56 41.31000 -7.28922 38794 ft 432 kts 187°
2026-04-29 14:56 41.25023 -7.29638 38811 ft 430 kts 187°
2026-04-29 14:57 41.19074 -7.30350 38806 ft 428 kts 187°
2026-04-29 14:57 41.13144 -7.31058 38804 ft 427 kts 187°
2026-04-29 14:58 41.07229 -7.31763 38810 ft 426 kts 187°
2026-04-29 14:58 41.01323 -7.32466 38814 ft 426 kts 187°
2026-04-29 14:59 40.95406 -7.33169 38818 ft 427 kts 187°
2026-04-29 14:59 40.89487 -7.33871 38812 ft 428 kts 187°
2026-04-29 15:00 40.83544 -7.34574 38828 ft 429 kts 187°
2026-04-29 15:00 40.77629 -7.35273 38829 ft 430 kts 187°
2026-04-29 15:01 40.71644 -7.35978 38826 ft 431 kts 187°
2026-04-29 15:01 40.65651 -7.36684 38819 ft 433 kts 188°
2026-04-29 15:02 40.59645 -7.37390 38824 ft 433 kts 188°
2026-04-29 15:02 40.53642 -7.38093 38836 ft 434 kts 188°
2026-04-29 15:03 40.47659 -7.38794 38837 ft 434 kts 188°
2026-04-29 15:03 40.42605 -7.39384 38833 ft 435 kts 188°
2026-04-29 15:04 40.36615 -7.40083 38825 ft 434 kts 188°
2026-04-29 15:04 40.30604 -7.40782 38837 ft 433 kts 188°
2026-04-29 15:05 40.24592 -7.41481 38836 ft 432 kts 188°
2026-04-29 15:05 40.18598 -7.42176 38837 ft 431 kts 188°
2026-04-29 15:06 40.12621 -7.42869 38840 ft 431 kts 188°
2026-04-29 15:06 40.06688 -7.43555 38842 ft 430 kts 188°
2026-04-29 15:07 40.00728 -7.44244 38836 ft 430 kts 188°
2026-04-29 15:07 39.94771 -7.44930 38849 ft 429 kts 188°
2026-04-29 15:08 39.88820 -7.45614 38848 ft 429 kts 188°
2026-04-29 15:08 39.82863 -7.46299 38854 ft 429 kts 188°
2026-04-29 15:09 39.76905 -7.46982 38847 ft 430 kts 188°
2026-04-29 15:09 39.70983 -7.47660 38854 ft 430 kts 188°
2026-04-29 15:10 39.65015 -7.48341 38843 ft 431 kts 188°
2026-04-29 15:10 39.59044 -7.49023 38854 ft 431 kts 188°
2026-04-29 15:11 39.53059 -7.49704 38848 ft 431 kts 189°
2026-04-29 15:11 39.47080 -7.50383 38855 ft 431 kts 189°
2026-04-29 15:12 39.41085 -7.51063 38853 ft 432 kts 189°
2026-04-29 15:12 39.35108 -7.51740 38851 ft 432 kts 189°
2026-04-29 15:13 39.29154 -7.52413 38848 ft 432 kts 189°
2026-04-29 15:13 39.23158 -7.53090 38852 ft 432 kts 189°
2026-04-29 15:14 39.17165 -7.53765 38853 ft 431 kts 189°
2026-04-29 15:14 39.11182 -7.54438 38857 ft 431 kts 189°
2026-04-29 15:15 39.05250 -7.55104 38849 ft 430 kts 189°
2026-04-29 15:15 38.99280 -7.55773 38856 ft 429 kts 189°
2026-04-29 15:16 38.93315 -7.56440 38859 ft 429 kts 189°
2026-04-29 15:16 38.87375 -7.57104 38837 ft 428 kts 190°
2026-04-29 15:17 38.81439 -7.57766 38859 ft 427 kts 190°
2026-04-29 15:17 38.75556 -7.58421 38867 ft 427 kts 190°
2026-04-29 15:18 38.69638 -7.59079 38865 ft 426 kts 190°
2026-04-29 15:18 38.63723 -7.59736 38854 ft 426 kts 190°
2026-04-29 15:19 38.57819 -7.60390 38868 ft 426 kts 190°
2026-04-29 15:19 38.51905 -7.61044 38866 ft 426 kts 191°
2026-04-29 15:20 38.45993 -7.61697 38875 ft 427 kts 191°
2026-04-29 15:20 38.40099 -7.62348 38854 ft 427 kts 191°
2026-04-29 15:21 38.34172 -7.63000 38866 ft 428 kts 191°
2026-04-29 15:21 38.28237 -7.63652 38882 ft 428 kts 191°
2026-04-29 15:22 38.22283 -7.64305 38885 ft 429 kts 191°
2026-04-29 15:22 38.16324 -7.64958 38889 ft 430 kts 191°
2026-04-29 15:23 38.10353 -7.65611 38900 ft 430 kts 191°
2026-04-29 15:23 38.04383 -7.66263 38893 ft 431 kts 191°
2026-04-29 15:24 37.98409 -7.66913 38891 ft 431 kts 191°
2026-04-29 15:24 37.92431 -7.67563 38859 ft 430 kts 191°
2026-04-29 15:25 37.86512 -7.68206 38879 ft 429 kts 191°
2026-04-29 15:25 37.80571 -7.68850 38881 ft 428 kts 191°
2026-04-29 15:26 37.74638 -7.69492 38877 ft 428 kts 191°
2026-04-29 15:26 37.68692 -7.70136 38876 ft 427 kts 191°
2026-04-29 15:27 37.62774 -7.70774 38887 ft 427 kts 191°
2026-04-29 15:27 37.56896 -7.71408 38884 ft 426 kts 191°
2026-04-29 15:28 37.50982 -7.72044 38884 ft 426 kts 191°
2026-04-29 15:28 37.45078 -7.72678 38870 ft 426 kts 191°
2026-04-29 15:29 37.39176 -7.73311 38886 ft 425 kts 191°
2026-04-29 15:30 37.27397 -7.74572 38903 ft 425 kts 191°
2026-04-29 15:30 37.21509 -7.75201 38886 ft 425 kts 191°
2026-04-29 15:31 37.15604 -7.75831 38903 ft 425 kts 191°
2026-04-29 15:31 37.09713 -7.76457 38910 ft 425 kts 191°
2026-04-29 15:32 37.03853 -7.77080 38915 ft 425 kts 191°
2026-04-29 15:32 36.97950 -7.77706 38889 ft 425 kts 191°
2026-04-29 15:33 36.92057 -7.78330 38908 ft 425 kts 191°
2026-04-29 15:33 36.86184 -7.78951 38918 ft 425 kts 191°
2026-04-29 15:34 36.80282 -7.79575 38921 ft 425 kts 191°
2026-04-29 15:34 36.74369 -7.80198 38926 ft 426 kts 191°
2026-04-29 15:35 36.68461 -7.80820 38929 ft 426 kts 191°
2026-04-29 15:35 36.62554 -7.81441 38936 ft 426 kts 191°
2026-04-29 15:36 36.56646 -7.82061 38936 ft 426 kts 191°
2026-04-29 15:36 36.50772 -7.82677 38932 ft 426 kts 191°
2026-04-29 15:37 36.44861 -7.83295 38935 ft 425 kts 191°
2026-04-29 15:37 36.38964 -7.83911 38932 ft 425 kts 191°
2026-04-29 15:38 36.33064 -7.84526 38940 ft 425 kts 191°
2026-04-29 15:38 36.27165 -7.85141 38939 ft 425 kts 191°
2026-04-29 15:39 36.21267 -7.85754 38929 ft 425 kts 191°
2026-04-29 15:39 36.15414 -7.86362 38935 ft 424 kts 191°
2026-04-29 15:40 36.09521 -7.86973 38943 ft 424 kts 191°
2026-04-29 15:40 36.03630 -7.87583 38940 ft 425 kts 191°
2026-04-29 15:41 35.97734 -7.88191 38922 ft 425 kts 190°
2026-04-29 15:41 35.91769 -7.88006 38945 ft 432 kts 181°
2026-04-29 15:42 35.85798 -7.87379 38940 ft 433 kts 181°
2026-04-29 15:42 35.79792 -7.86775 38943 ft 433 kts 181°
2026-04-29 15:43 35.73778 -7.86217 38945 ft 433 kts 181°
2026-04-29 15:43 35.67761 -7.85674 38951 ft 434 kts 181°
2026-04-29 15:44 35.61731 -7.85131 38948 ft 434 kts 181°
2026-04-29 15:44 35.55693 -7.84587 38948 ft 435 kts 181°
2026-04-29 15:45 35.49660 -7.84043 38926 ft 435 kts 181°
2026-04-29 15:45 35.43619 -7.83499 38941 ft 435 kts 181°
2026-04-29 15:46 35.37624 -7.82973 38951 ft 434 kts 181°
2026-04-29 15:46 35.31590 -7.82471 38951 ft 434 kts 182°
2026-04-29 15:47 35.25545 -7.81970 38952 ft 435 kts 181°
2026-04-29 15:47 35.19516 -7.81467 38944 ft 434 kts 181°
2026-04-29 15:48 35.13487 -7.80963 38951 ft 434 kts 181°
2026-04-29 15:48 35.07461 -7.80461 38955 ft 434 kts 181°
2026-04-29 15:49 35.01471 -7.79962 38949 ft 434 kts 181°
2026-04-29 15:49 34.95453 -7.79462 38944 ft 433 kts 181°
2026-04-29 15:50 34.89435 -7.78962 38949 ft 433 kts 181°
2026-04-29 15:50 34.83412 -7.78463 38949 ft 433 kts 181°
2026-04-29 15:51 34.77413 -7.78263 38948 ft 430 kts 186°
2026-04-29 15:51 34.72440 -7.78370 38930 ft 429 kts 186°
2026-04-29 15:52 34.66458 -7.78511 38943 ft 429 kts 186°
2026-04-29 15:52 34.60492 -7.78608 38949 ft 429 kts 186°
2026-04-29 15:53 34.54515 -7.78678 38950 ft 429 kts 185°
2026-04-29 15:53 34.48538 -7.78740 38933 ft 429 kts 185°
2026-04-29 15:54 34.42606 -7.78800 38942 ft 429 kts 185°
2026-04-29 15:54 34.36628 -7.78861 38949 ft 429 kts 185°
2026-04-29 15:55 34.30648 -7.78923 38948 ft 429 kts 185°
2026-04-29 15:55 34.24664 -7.78985 38949 ft 430 kts 185°
2026-04-29 15:56 34.18689 -7.79046 38943 ft 429 kts 185°
2026-04-29 15:56 34.12706 -7.79108 38945 ft 429 kts 185°
2026-04-29 15:57 34.06768 -7.79169 38942 ft 429 kts 185°
2026-04-29 15:57 34.00757 -7.79230 38947 ft 429 kts 185°
2026-04-29 15:58 33.94811 -7.79291 38939 ft 429 kts 185°
2026-04-29 15:58 33.88840 -7.79352 38950 ft 429 kts 185°
2026-04-29 15:59 33.82861 -7.79413 38957 ft 429 kts 185°
2026-04-29 15:59 33.76885 -7.79474 38952 ft 429 kts 185°
2026-04-29 16:00 33.70953 -7.79535 38943 ft 428 kts 185°
2026-04-29 16:00 33.64972 -7.79597 38584 ft 434 kts 185°
2026-04-29 16:00 33.61953 -7.79629 38055 ft 433 kts 185°
2026-04-29 16:01 33.58941 -7.79659 37518 ft 431 kts 185°
2026-04-29 16:01 33.55927 -7.79688 36950 ft 430 kts 185°
2026-04-29 16:01 33.52943 -7.79717 36403 ft 429 kts 184°
2026-04-29 16:01 33.49959 -7.79747 35848 ft 428 kts 184°
2026-04-29 16:02 33.46975 -7.79777 35242 ft 429 kts 184°
2026-04-29 16:02 33.44028 -7.79808 34643 ft 429 kts 184°
2026-04-29 16:02 33.41039 -7.79839 34019 ft 430 kts 184°
2026-04-29 16:02 33.38038 -7.79870 33312 ft 431 kts 184°
2026-04-29 16:03 33.35032 -7.79900 32675 ft 431 kts 184°
2026-04-29 16:03 33.32060 -7.79928 32229 ft 426 kts 184°
2026-04-29 16:03 33.29107 -7.79957 31749 ft 422 kts 184°
2026-04-29 16:03 33.26179 -7.79985 31289 ft 419 kts 184°
2026-04-29 16:04 33.23281 -7.80014 30839 ft 415 kts 184°
2026-04-29 16:04 33.20398 -7.80042 30374 ft 412 kts 184°
2026-04-29 16:04 33.17533 -7.80071 29920 ft 409 kts 184°
2026-04-29 16:04 33.14691 -7.80100 29401 ft 406 kts 184°
2026-04-29 16:05 33.11879 -7.80128 28911 ft 402 kts 184°
2026-04-29 16:05 33.09093 -7.80156 28450 ft 398 kts 184°
2026-04-29 16:05 33.06332 -7.80183 27982 ft 395 kts 184°
2026-04-29 16:05 33.03595 -7.80211 27527 ft 392 kts 184°
2026-04-29 16:06 33.00877 -7.80238 27047 ft 389 kts 184°
2026-04-29 16:06 32.98222 -7.80265 26625 ft 386 kts 184°
2026-04-29 16:06 32.95544 -7.80292 26188 ft 383 kts 184°
2026-04-29 16:06 32.92884 -7.80319 25737 ft 381 kts 184°
2026-04-29 16:07 32.90236 -7.80346 25278 ft 379 kts 184°
2026-04-29 16:07 32.87612 -7.80373 24854 ft 377 kts 184°
2026-04-29 16:07 32.84989 -7.80399 24418 ft 375 kts 184°
2026-04-29 16:07 32.82385 -7.80425 23962 ft 374 kts 184°
2026-04-29 16:08 32.79783 -7.80452 23511 ft 373 kts 184°
2026-04-29 16:08 32.77191 -7.80478 23003 ft 371 kts 184°
2026-04-29 16:08 32.74615 -7.80503 22540 ft 369 kts 184°
2026-04-29 16:08 32.72059 -7.80528 22093 ft 366 kts 184°
2026-04-29 16:09 32.69520 -7.80553 21654 ft 364 kts 184°
2026-04-29 16:09 32.67003 -7.80578 21221 ft 361 kts 184°
2026-04-29 16:09 32.64527 -7.80603 20787 ft 359 kts 184°
2026-04-29 16:09 32.62037 -7.80628 20380 ft 357 kts 184°
2026-04-29 16:10 32.59561 -7.80652 19954 ft 355 kts 184°
2026-04-29 16:10 32.57097 -7.80677 19539 ft 353 kts 184°
2026-04-29 16:10 32.54639 -7.80701 19123 ft 351 kts 184°
2026-04-29 16:10 32.52199 -7.80726 18699 ft 350 kts 184°
2026-04-29 16:11 32.49763 -7.80750 18280 ft 349 kts 184°
2026-04-29 16:11 32.47333 -7.80774 17782 ft 348 kts 184°
2026-04-29 16:11 32.44948 -7.80798 17365 ft 346 kts 183°
2026-04-29 16:11 32.42546 -7.80821 16939 ft 344 kts 183°
2026-04-29 16:12 32.40164 -7.80845 16525 ft 341 kts 183°
2026-04-29 16:12 32.38564 -7.80857 16246 ft 340 kts 182°
2026-04-29 16:12 32.35441 -7.80838 15700 ft 337 kts 182°
2026-04-29 16:12 32.33107 -7.80811 15302 ft 335 kts 182°
2026-04-29 16:13 32.30778 -7.80783 14898 ft 333 kts 182°
2026-04-29 16:13 32.28466 -7.80757 14500 ft 332 kts 181°
2026-04-29 16:13 32.26162 -7.80733 14110 ft 330 kts 181°
2026-04-29 16:13 32.23862 -7.80710 13692 ft 330 kts 181°
2026-04-29 16:14 32.21565 -7.80688 13247 ft 329 kts 181°
2026-04-29 16:14 32.19315 -7.80667 12831 ft 327 kts 181°
2026-04-29 16:14 32.17047 -7.80646 12426 ft 324 kts 181°
2026-04-29 16:14 32.14793 -7.80625 12029 ft 322 kts 181°
2026-04-29 16:15 32.12560 -7.80605 11639 ft 319 kts 181°
2026-04-29 16:15 32.10346 -7.80585 11257 ft 317 kts 181°
2026-04-29 16:15 32.08147 -7.80565 10871 ft 315 kts 181°
2026-04-29 16:15 32.05960 -7.80545 10491 ft 312 kts 181°
2026-04-29 16:16 32.03803 -7.80526 10295 ft 304 kts 181°
2026-04-29 16:16 32.01780 -7.80506 10170 ft 285 kts 181°
2026-04-29 16:16 31.99833 -7.80487 9895 ft 278 kts 181°
2026-04-29 16:16 31.97899 -7.80470 9634 ft 275 kts 181°
2026-04-29 16:17 31.96006 -7.80454 9367 ft 267 kts 181°
2026-04-29 16:17 31.94177 -7.80437 9099 ft 258 kts 181°
2026-04-29 16:17 31.92417 -7.80421 8859 ft 248 kts 181°
2026-04-29 16:17 31.90720 -7.80406 8615 ft 242 kts 181°
2026-04-29 16:18 31.89043 -7.80392 8407 ft 241 kts 181°
2026-04-29 16:18 31.87364 -7.80378 8174 ft 238 kts 181°
2026-04-29 16:18 31.85725 -7.80364 7928 ft 233 kts 181°
2026-04-29 16:18 31.84116 -7.80349 7686 ft 231 kts 181°
2026-04-29 16:19 31.82511 -7.80335 7425 ft 228 kts 180°
2026-04-29 16:19 31.80949 -7.80321 7211 ft 219 kts 180°
2026-04-29 16:19 31.79453 -7.80308 6960 ft 211 kts 180°
2026-04-29 16:19 31.78013 -7.80295 6715 ft 204 kts 180°
2026-04-29 16:20 31.76605 -7.80283 6491 ft 202 kts 180°
2026-04-29 16:20 31.75197 -7.80271 6282 ft 201 kts 180°
2026-04-29 16:20 31.73809 -7.80258 6048 ft 199 kts 180°
2026-04-29 16:20 31.72430 -7.80246 5863 ft 196 kts 180°
2026-04-29 16:21 31.71077 -7.80234 5761 ft 195 kts 180°
2026-04-29 16:21 31.69707 -7.80222 5676 ft 200 kts 180°
2026-04-29 16:21 31.68329 -7.80209 5597 ft 198 kts 180°
2026-04-29 16:21 31.66991 -7.80199 5459 ft 189 kts 181°
2026-04-29 16:22 31.65699 -7.80313 5277 ft 183 kts 187°
2026-04-29 16:22 31.64440 -7.80473 5128 ft 182 kts 187°
2026-04-29 16:22 31.63172 -7.80634 4972 ft 186 kts 187°
2026-04-29 16:22 31.61868 -7.80795 4804 ft 189 kts 187°
2026-04-29 16:23 31.60551 -7.80964 4616 ft 190 kts 191°
2026-04-29 16:23 31.59402 -7.81637 4381 ft 184 kts 231°
2026-04-29 16:23 31.58920 -7.82923 4223 ft 171 kts 267°
2026-04-29 16:23 31.58962 -7.84291 4075 ft 166 kts 277°
2026-04-29 16:24 31.59083 -7.85647 3923 ft 169 kts 277°
2026-04-29 16:24 31.59210 -7.87032 3776 ft 172 kts 277°
2026-04-29 16:24 31.59338 -7.88434 3603 ft 172 kts 277°
2026-04-29 16:24 31.59463 -7.89822 3434 ft 170 kts 277°
2026-04-29 16:25 31.59586 -7.91191 3268 ft 168 kts 277°
2026-04-29 16:25 31.59707 -7.92541 3068 ft 169 kts 277°
2026-04-29 16:25 31.59828 -7.93891 2881 ft 161 kts 277°
2026-04-29 16:25 31.59942 -7.95163 2712 ft 155 kts 277°
2026-04-29 16:26 31.60053 -7.96414 2489 ft 153 kts 277°
2026-04-29 16:26 31.60163 -7.97653 2288 ft 152 kts 277°
2026-04-29 16:26 31.60272 -7.98895 2088 ft 153 kts 278°
2026-04-29 16:26 31.60389 -8.00139 1911 ft 154 kts 278°
2026-04-29 16:27 31.60493 -8.01398 1699 ft 156 kts 277°
2026-04-29 16:27 31.60603 -8.02654 1538 ft 150 kts 276°
2026-04-29 16:27 31.60690 -8.03642 1536 ft 94 kts 276°
2026-04-29 16:27 31.60750 -8.04327 1539 ft 76 kts 276°
2026-04-29 16:28 31.60800 -8.04889 1534 ft 57 kts 276°
2026-04-29 16:28 31.60822 -8.05184 1538 ft 17 kts 265°
2026-04-29 16:28 31.60733 -8.05248 1539 ft 16 kts 184°
2026-04-29 16:28 31.60657 -8.05198 1534 ft 15 kts 106°
2026-04-29 16:29 31.60643 -8.05075 1539 ft 15 kts 95°
2026-04-29 16:29 31.60634 -8.04953 1537 ft 15 kts 95°
2026-04-29 16:29 31.60623 -8.04834 1536 ft 16 kts 96°
2026-04-29 16:29 31.60609 -8.04682 1539 ft 21 kts 96°
2026-04-29 16:30 31.60594 -8.04506 1539 ft 21 kts 96°
2026-04-29 16:30 31.60580 -8.04335 1539 ft 21 kts 96°
2026-04-29 16:30 31.60564 -8.04165 1539 ft 22 kts 96°
2026-04-29 16:30 31.60548 -8.03984 1538 ft 22 kts 96°
2026-04-29 16:31 31.60533 -8.03806 1538 ft 22 kts 96°
2026-04-29 16:31 31.60518 -8.03633 1538 ft 21 kts 96°
2026-04-29 16:31 31.60502 -8.03464 1539 ft 20 kts 96°
2026-04-29 16:31 31.60488 -8.03302 1539 ft 20 kts 95°
2026-04-29 16:32 31.60475 -8.03144 1539 ft 19 kts 96°
2026-04-29 16:32 31.60465 -8.03036 1539 ft 21 kts 96°
2026-04-29 16:32 31.60445 -8.02799 1539 ft 22 kts 96°
2026-04-29 16:32 31.60429 -8.02625 1539 ft 21 kts 95°
2026-04-29 16:33 31.60399 -8.02284 1534 ft 19 kts 96°
2026-04-29 16:33 31.60370 -8.02194 1537 ft 11 kts 156°
2026-04-29 16:33 31.60277 -8.02199 1531 ft 16 kts 187°
2026-04-29 16:34 31.60170 -8.02214 1539 ft 12 kts 186°
2026-04-29 16:34 31.60121 -8.02221 1539 ft 6 kts 194°
2026-04-29 16:34 31.60106 -8.02262 1539 ft 6 kts 275°
2026-04-29 16:34 31.60110 -8.02306 1530 ft 3 kts 277°
2026-04-29 16:35 31.60112 -8.02319 1533 ft 0 kts 276°